weather.gov     
National Weather Service

Regional Weather Roundup
NWS Homepage
This page is being discontinued on March 12, 2014.
The same data is available at this site. Please update your bookmarks.
Thank you, and we apologize for the inconvenience.
Please send an email to SR-SRH.Webmaster@noaa.gov with any concerns.


Current Version
Previous Version:    01  02  03  04  05  06  07  08  09  10  11  12  13  14  15  16  17  18  19  20  21  22  23  24  25  26  27  28  
[Printable]
734
ASUS43 KDMX 231607
RWRIA

WEATHER ROUNDUP FOR IOWA
NATIONAL WEATHER SERVICE DES MOINES IA
1100 AM CDT TUE SEP 23 2014

NOTE: "FAIR" INDICATES FEW OR NO CLOUDS BELOW 12,000 FEET WITH NO
SIGNIFICANT WEATHER AND/OR OBSTRUCTIONS TO VISIBILITY.

* - THESE STATIONS ARE NOT NWS STATIONS...THUS NOT UNDER NWS
QUALITY CONTROL.  THEY ALSO DO NOT REPORT WEATHER SUCH
AS PRECIPITATION OR FOG.

IAZ001>003-012>014-020>022-031>034-043>046-231700-
   NORTHWEST IOWA

CITY           SKY/WX    TMP DP  RH WIND       PRES   REMARKS
CARROLL *      SUNNY     64  54  68 S12       30.21F
CHEROKEE *     CLOUDY    61  57  88 S8        30.18F
DENISON *      MOSUNNY   61  54  77 S13       30.19R
LE MARS *      MOSUNNY   61  55  82 SE8       30.16F
ORANGE CITY *  CLOUDY    61  55  82 SE7       30.17S
SHELDON *      SUNNY     57  55  94 SE9       30.16F
SIOUX CITY     LGT RAIN  61  57  87 SE7       30.15F
SPENCER        CLOUDY    60  53  77 S9        30.20F
STORM LAKE *   SUNNY     61  57  88 S10       30.20F
$$

IAZ055>058-069>071-079>083-090>094-231700-
   SOUTHWEST IOWA

CITY           SKY/WX    TMP DP  RH WIND       PRES   REMARKS
ATLANTIC *     MOSUNNY   63  52  67 S8G14     30.22S
AUDUBON *      SUNNY     63  54  72 S9        30.23S
CLARINDA *     SUNNY     66  54  63 S8        30.24S
COUNCIL BLFS * MOSUNNY   61  57  88 S9        30.18F
CRESTON *      PTSUNNY   63  52  67 SE13G18   30.24F
HARLAN  *      MOSUNNY   63  54  72 S10       30.24S
LAMONI         CLOUDY    63  52  67 SE9       30.26F
RED OAK *      CLOUDY    64  54  68 S12       30.22S
SHENANDOAH *   CLOUDY    64  54  68 SE10      30.21F
$$

IAZ047>049-059>061-072>074-084-231700-
   CENTRAL IOWA

CITY           SKY/WX    TMP DP  RH WIND       PRES   REMARKS
AMES           PTSUNNY   67  54  63 S12       30.27R
ANKENY *       SUNNY     64  54  68 S9        30.27S
CHARITON *     SUNNY     66  52  59 S10       30.28S
DES MOINES     CLOUDY    65  52  62 SE9       30.26F
GRINNELL*      MOSUNNY   64  52  63 S7        30.30S
KNOXVILLE *    SUNNY     64  52  63 S10       30.27S
MARSHALLTOWN   SUNNY     65  50  58 S10       30.28S
PELLA *        MOSUNNY   68  52  56 S9        30.30S
PERRY *          N/A     68  52  56 S12       30.25F
$$

IAZ004>006-015-016-023>025-035-036-231700-
   NORTH CENTRAL IOWA

CITY           SKY/WX    TMP DP  RH WIND       PRES   REMARKS
ALGONA *       SUNNY     64  54  68 S13G20    30.24S
CLARION *        N/A     66  54  63 S13       30.25S
ESTHERVILLE    PTSUNNY   61  53  75 S14       30.21S
FORT DODGE *   CLOUDY    64  54  68 S7        30.25S
MASON CITY     MOSUNNY   67  53  61 S15       30.27F
FOREST CITY *  SUNNY     64  54  68 S10       30.26S
IOWA FALLS *     N/A     66  52  59 S10       30.28S
$$

IAZ007>011-017>019-026>030-037>042-050>054-066-231700-
   NORTHEAST IOWA

CITY           SKY/WX    TMP DP  RH WIND       PRES   REMARKS
CEDAR RAPIDS   SUNNY     64  51  62 S10       30.31S
CHARLES CITY * SUNNY     64  52  63 VRB7      30.29S
CLINTON *      SUNNY     64  48  55 S7        30.37S
DECORAH *      SUNNY     66  52  59 VRB6G12   30.29F
DUBUQUE        SUNNY     64  48  56 SW12      30.34R
MONTICELLO *   SUNNY     66  48  52 S10       30.32S
OELWEIN *      SUNNY     66  50  55 S13       30.31S
WATERLOO       SUNNY     67  51  56 S10       30.28F
$$

IAZ064-065-067-068-078-231700-
   EAST CENTRAL IOWA

CITY           SKY/WX    TMP DP  RH WIND       PRES   REMARKS
DAVENPORT      SUNNY     67  46  47 S9        30.34S
IOWA CITY      SUNNY     65  53  65 SE6       30.33F
MT. PLEASANT * SUNNY     70  45  40 SE8       30.33F
MUSCATINE *    SUNNY     68  46  45 SE9       30.34S
QUAD CITIES    SUNNY     68  48  48 SW8       30.34R
$$

IAZ062-063-075>077-085>089-095>099-231700-
   SOUTHEAST IOWA

CITY           SKY/WX    TMP DP  RH WIND       PRES   REMARKS
BURLINGTON     SUNNY     67  49  52 S7        30.33S
FAIRFIELD *    SUNNY     64  48  55 S8        30.32F
FORT MADISON * SUNNY     70  46  43 S5        30.34S
KEOKUK *       SUNNY     68  50  52 S7        30.32F
OSKALOOSA *      N/A     66  52  59 S9        30.31R
CENTERVILLE *  SUNNY     64  52  63 S8        30.31S
OTTUMWA        MOSUNNY   66  49  54 S10       30.29F
WASHINGTON *   SUNNY     70  48  46 S9        30.32F
$$

ABBREVIATIONS USED IN REMARKS
   TC - TEMPERATURES IN CELSIUS
  WCI - WIND CHILL INDEX
   HX - HEAT INDEX
  VSB - VISIBILITY
$$





U.S. Dept. of Commerce
NOAA National Weather Service
1325 East West Highway
Silver Spring, MD 20910
E-mail: w-nws.webmaster@noaa.gov
Page last modified: May 16, 2007
NATIONAL WEATHER SERVICE: for Safety, for Work, for Fun - FOR LIFE